Theta_e
309 306 303 306 312 311 315 315 314 314 318 317 319 326 331 341 344 355 352 355 359 362 364 365 365 364 363 362 362 362 362 363
305 302 309 311 314 315 313 315 316 315 313 321 328 328 334 342 344 345 352 350 359 361 363 364 365 364 363 363 362 362 363 363
305 305 309 312 315 318 311 312 314 315 312 318 327 330 336 343 344 344 350 350 358 360 362 364 364 364 364 364 363 363 363 363
301 304 310 313 315 317 315 315 314 313 313 317 328 326 332 343 344 345 348 353 358 359 361 361 362 362 362 362 362 362 363 362
304 304 307 311 315 311 312 313 315 318 313 320 323 326 329 341 343 347 348 357 358 355 358 361 360 360 360 360 360 360 360 359
304 305 305 313 314 315 313 312 321 321 313 315 323 326 327 330 341 343 344 356 358 353 352 354 356 359 359 359 359 359 358 358
302 304 307 313 312 317 318 314 318 320 320 322 325 324 324 326 338 338 341 354 355 348 351 351 351 355 358 358 358 358 357 357
308 309 308 311 312 314 313 313 314 317 322 324 324 322 321 321 324 337 338 343 352 347 349 350 346 355 353 352 353 352 351 354
309 311 311 310 310 314 312 311 314 315 319 322 322 322 320 319 323 329 341 342 349 349 352 349 346 354 351 351 350 350 350 352
309 311 310 309 312 310 311 313 318 319 321 320 321 322 320 318 319 325 336 343 349 352 354 352 348 351 352 347 349 349 349 353
309 309 309 310 308 308 309 314 317 319 318 319 319 322 327 325 320 323 334 341 345 351 359 359 363 361 354 346 349 349 351 353
307 307 308 306 306 307 310 314 315 316 316 317 317 317 320 323 328 333 338 342 341 354 357 359 363 367 366 362 349 351 351 351
304 305 304 306 302 303 309 311 310 312 314 316 316 316 316 323 328 333 331 338 341 344 355 354 355 361 362 360 357 359 354 360
302 304 305 304 297 304 309 309 308 309 311 313 315 316 322 323 327 330 332 332 338 337 346 355 356 356 357 356 357 356 356 361
299 305 304 303 298 304 308 308 308 309 311 311 313 318 324 322 325 324 328 331 334 339 342 354 351 355 354 353 352 353 353 353
298 302 303 300 300 304 306 306 307 309 309 310 312 314 322 321 323 326 329 334 336 337 340 345 351 351 351 351 350 349 346 347
300 303 301 300 300 302 305 306 306 307 309 310 312 315 318 321 322 325 330 332 333 337 338 341 345 345 346 346 347 347 348 345
298 301 300 299 298 302 304 305 307 308 309 310 311 313 317 321 321 324 328 332 333 332 337 335 342 345 345 347 350 350 346 345
295 299 301 299 296 299 303 305 307 308 310 311 311 311 314 318 319 322 327 329 331 334 333 337 337 337 336 336 340 343 347 345
297 295 290 299 289 297 301 302 305 306 308 309 310 312 314 315 318 321 323 328 328 330 331 332 339 339 338 334 328 330 336 339
Wind_Speed
4 11 13 17 11 16 11 10 4 3 2 8 7 15 7 13 8 21 17 15 13 13 13 18 16 13 13 15 15 14 14 13
11 16 18 22 19 9 15 7 4 4 5 5 13 7 9 9 4 4 20 16 18 15 13 18 17 13 11 12 14 14 14 14
16 17 17 17 17 14 9 13 4 5 10 2 12 9 9 8 6 8 17 18 18 18 15 17 20 16 11 9 9 11 12 12
15 19 20 15 4 11 9 16 19 11 2 9 13 12 9 7 8 8 14 19 16 19 15 16 18 20 15 13 11 8 9 10
21 19 22 17 15 10 13 16 22 16 15 4 16 11 9 4 2 7 13 19 15 14 14 12 16 19 18 14 13 11 9 8
20 18 22 19 11 13 9 12 15 13 12 4 10 12 12 10 4 7 11 20 16 14 14 11 10 13 17 16 14 12 11 10
23 23 20 20 17 16 15 10 14 12 21 22 7 12 13 9 4 3 10 18 15 15 14 12 11 11 12 16 15 13 12 12
22 22 20 21 20 18 18 15 14 19 18 18 11 8 14 13 10 5 5 15 17 15 14 13 11 12 10 10 8 8 8 10
22 21 22 23 24 23 16 15 13 20 23 19 17 8 9 14 13 10 5 5 17 15 13 13 10 10 6 6 6 7 9 7
23 23 23 23 23 22 24 14 19 20 21 24 19 3 10 13 18 7 7 7 12 14 13 11 8 9 9 7 7 7 9 9
22 22 24 22 25 25 23 21 16 17 15 15 19 15 3 4 11 15 4 9 6 11 10 7 4 2 6 10 8 8 9 10
21 20 21 23 20 22 26 21 17 18 17 15 14 14 14 5 1 8 7 8 13 6 7 7 1 3 2 3 8 9 8 10
21 16 21 21 23 25 23 23 21 22 20 16 15 16 16 8 9 5 5 6 6 8 8 8 8 4 2 3 1 1 5 9
19 23 24 21 25 22 21 20 23 23 20 19 13 17 10 7 9 7 4 2 3 5 6 6 5 5 3 3 2 2 3 3
22 22 20 24 25 22 20 20 20 18 15 17 10 13 8 8 11 8 5 3 1 2 3 5 6 4 6 4 4 4 3 2
17 14 9 14 18 17 21 18 20 15 12 11 13 13 7 12 12 10 7 3 3 5 5 3 3 6 5 6 4 6 5 5
20 19 15 16 16 13 17 18 17 13 14 13 13 12 16 15 12 9 8 6 4 4 7 5 2 3 3 6 5 4 5 9
20 20 19 20 21 17 15 20 20 18 16 16 16 12 12 10 8 11 7 4 4 3 3 5 3 1 1 5 3 4 7 6
20 19 22 21 19 18 22 23 23 23 18 14 13 15 15 11 10 4 9 8 3 4 5 2 4 2 1 3 3 1 4 6
18 17 16 14 17 20 20 18 17 12 16 15 18 14 18 18 11 6 4 3 8 5 3 5 3 1 3 2 1 4 8 6
Wind_Direction
245 248 251 259 46 352 46 81 81 344 21 337 31 45 19 9 360 122 137 150 149 153 149 138 140 148 153 152 148 150 149 147
257 260 256 254 290 351 322 56 356 299 331 98 62 43 16 348 310 193 145 157 141 150 155 141 140 142 148 154 152 153 152 150
257 246 250 276 292 295 311 317 321 213 238 193 103 56 9 5 310 228 150 157 153 151 156 150 142 140 141 145 144 150 152 151
257 257 252 247 155 260 263 291 310 286 248 282 88 46 359 40 317 209 155 138 152 151 154 156 148 142 142 138 134 139 144 150
254 261 274 265 158 187 215 268 273 331 325 117 51 21 338 86 74 268 149 131 143 160 156 158 153 147 142 139 137 136 136 141
260 263 259 267 163 175 213 231 238 262 284 351 44 1 333 336 87 228 169 133 143 161 172 173 162 150 143 141 140 136 137 141
252 256 262 269 266 183 185 221 237 257 264 314 65 15 333 343 118 234 191 137 144 165 170 180 173 158 143 144 142 144 148 150
249 258 270 272 272 263 176 190 220 232 257 278 326 34 336 331 334 140 231 162 143 160 168 182 185 156 173 169 172 174 178 167
253 258 261 264 274 279 249 199 208 211 254 257 284 18 337 336 343 339 262 203 144 155 159 184 205 146 171 180 184 182 186 176
257 263 272 277 281 273 271 252 194 205 218 250 252 251 342 342 329 305 341 316 139 152 157 182 185 159 165 187 179 183 184 180
266 262 264 273 272 281 277 273 279 208 191 219 255 259 225 313 329 327 328 301 170 147 140 167 203 125 173 178 176 183 175 184
264 270 274 267 261 269 268 267 261 266 190 203 235 258 269 184 10 357 23 9 352 137 118 119 219 358 328 261 178 177 181 183
269 261 264 263 258 245 259 266 265 255 258 216 205 248 240 194 121 93 62 8 344 312 144 158 191 189 189 296 275 178 184 172
257 246 242 241 256 255 252 252 254 257 258 254 213 233 223 141 115 102 79 81 336 327 322 163 178 165 197 232 325 252 309 155
255 242 237 227 239 249 251 260 263 234 264 247 224 242 175 142 128 127 124 168 268 51 330 173 188 213 163 204 207 265 224 243
263 254 201 239 264 275 273 267 268 224 246 264 272 275 202 171 146 135 138 139 176 124 108 330 209 212 153 191 209 206 231 210
293 299 310 275 247 260 287 281 257 225 231 232 244 233 258 165 147 139 141 159 231 177 141 136 218 190 163 188 203 219 227 217
279 278 277 275 270 272 272 275 274 266 221 211 216 214 250 148 140 148 150 149 242 252 149 135 147 212 227 188 169 221 229 222
281 291 291 292 282 275 266 257 254 256 258 247 223 203 196 188 161 194 153 152 232 258 259 189 116 253 190 290 152 144 269 249
292 289 283 281 282 276 284 285 243 262 230 243 228 242 189 198 152 173 257 179 161 192 233 259 177 213 285 227 238 218 236 256